Location: Dal�� Lhota
(48.7500°N, 14.0167°E)
Time: 02:28:28
(UTC+00:00)

Abrixas rocket - Pass Details

Date: 24 September 2020
Orbit: 327 x 334 km, 48.4° (Epoch: 29 October)

Event Time Altitude Azimuth Distance (km) Brightness Sun altitude
Rises 18:27:15 0° 280° (W) 2,098 7.6 -15.5°
Reaches altitude 10° 18:29:19 10° 272° (W) 1,257 5.9 -15.9°
Maximum altitude 18:31:57 37° 202° (SSW) 533 2.8 -16.3°
Enters shadow 18:32:24 34° 177° (S) 569 2.7 -16.3°
